Temp
61 61 60 60 59 59 59 58 58 58 58 58 58 58 58 58 57 50 48 59 56 63 64 59 59 57 55 50 51 49 39 33 41 45 49 57 53 60 62 61 62 64 62 69 70
61 61 61 60 59 59 58 58 57 57 57 58 58 58 58 57 49 46 59 63 64 65 60 58 55 56 49 47 48 46 36 41 49 51 51 56 50 56 56 58 60 62 66 69 67
61 61 61 60 60 59 58 58 57 57 57 57 57 57 57 55 48 57 66 64 64 63 58 59 59 56 48 47 48 44 41 47 52 56 52 52 54 57 56 53 59 59 64 66 67
61 60 60 60 60 59 58 57 57 57 57 57 57 57 57 50 46 56 67 66 64 61 59 56 54 49 45 45 50 44 50 53 52 56 54 51 56 54 56 58 64 64 64 63 64
60 60 60 60 60 59 58 57 56 57 57 57 57 57 50 46 51 61 66 65 61 60 57 55 52 50 46 48 48 47 50 54 55 56 54 56 52 55 55 61 63 63 63 61 61
59 59 59 59 59 58 57 56 56 56 56 56 56 57 45 42 61 62 62 60 59 57 56 57 55 55 51 49 48 52 51 53 53 54 53 53 53 52 57 60 60 60 61 62 61
59 58 58 58 58 57 57 56 55 55 56 56 56 54 45 50 57 58 60 58 58 59 55 59 59 52 51 49 54 53 46 48 50 51 51 52 45 50 57 58 57 57 58 59 60
59 58 57 56 56 56 56 55 55 55 55 56 56 51 41 59 54 55 55 58 61 60 60 60 59 54 51 54 51 44 42 37 48 49 53 50 41 51 58 52 55 58 58 59 59
58 57 55 55 55 54 54 54 55 55 56 56 51 46 40 60 54 60 59 58 60 59 59 66 57 50 48 42 37 37 32 36 42 51 48 47 41 49 57 55 53 54 55 55 56
57 56 55 55 54 53 53 54 54 53 53 55 54 42 48 52 59 61 57 60 58 56 54 51 46 42 39 37 28 32 33 30 34 44 45 43 43 48 52 51 52 51 52 53 57
57 56 55 54 53 52 50 48 46 44 43 43 44 45 50 57 60 58 59 57 57 52 43 45 38 35 40 40 41 39 36 34 37 45 40 42 44 46 48 48 48 50 50 52 54
56 55 55 53 53 52 49 44 50 51 38 47 48 48 53 54 48 55 61 52 49 42 44 40 35 43 45 43 41 40 36 35 40 45 42 40 42 48 48 49 50 51 51 51 50
55 55 54 52 52 48 45 47 56 54 40 44 48 47 50 53 48 49 56 51 46 42 41 36 43 48 44 41 39 38 35 36 37 42 41 39 39 42 49 49 52 51 50 49 48
54 53 52 52 46 46 40 53 54 52 35 39 43 47 52 53 46 57 58 53 45 42 41 39 46 45 42 41 41 34 43 43 40 35 28 39 29 41 44 46 48 48 46 45 46
53 52 51 52 43 44 51 54 53 49 19 45 44 58 53 49 51 50 59 51 44 44 42 40 42 42 40 43 45 39 46 43 41 35 31 34 31 36 46 43 42 43 45 44 44
52 52 51 47 45 49 52 53 49 31 22 41 49 46 45 49 49 52 52 54 52 45 42 43 47 46 44 47 46 48 42 41 37 35 26 35 33 35 37 39 41 44 44 44 43
51 51 48 47 41 49 51 45 29 23 45 40 42 46 46 45 46 47 44 39 38 34 33 39 41 44 47 42 46 42 36 28 24 23 26 36 31 39 39 42 44 43 42 41 41
50 50 49 49 46 48 47 36 22 35 38 46 44 45 39 42 42 43 40 36 41 39 33 32 30 40 46 42 38 37 36 28 22 23 24 35 27 33 42 44 45 45 43 41 39
48 41 42 46 48 47 41 26 28 36 42 41 44 39 37 42 43 42 37 36 38 39 34 31 32 44 45 45 41 37 31 37 30 30 26 29 34 39 43 43 45 43 41 39 37
38 39 40 48 48 44 34 32 37 44 44 43 37 40 34 37 37 38 36 39 39 41 41 35 28 37 41 43 42 38 39 25 26 19 21 27 28 29 37 40 45 40 38 38 39
40 34 44 48 48 39 28 33 41 46 46 40 38 36 37 36 36 35 35 38 39 39 40 35 31 30 37 33 30 32 29 31 31 26 20 22 26 40 38 39 39 38 37 35 36
39 31 45 48 34 35 32 39 45 43 46 43 42 40 37 37 35 34 33 36 41 40 32 34 30 24 29 37 38 34 31 31 16 19 24 22 25 42 40 39 38 36 36 37 37
36 35 44 43 28 30 37 40 41 42 41 41 39 41 41 35 31 34 35 41 41 37 33 34 26 22 25 30 34 30 32 33 29 29 23 15 24 41 41 38 37 34 33 34 35
33 27 35 40 38 35 35 36 36 43 40 40 39 40 37 33 35 32 33 37 40 38 43 38 29 26 21 26 28 26 29 30 26 13 22 25 28 36 38 34 34 33 33 32 34
34 29 36 29 32 35 37 37 35 34 40 41 36 36 34 30 30 29 31 32 36 41 33 31 24 27 29 29 30 29 28 28 26 28 21 26 26 32 34 32 31 32 32 31 31
33 34 36 34 37 35 35 35 35 36 36 34 33 35 34 30 30 28 31 30 30 32 28 30 19 26 25 29 28 26 29 29 29 29 29 31 29 37 33 32 31 30 30 29 29
38 39 37 34 33 31 30 35 36 37 37 39 36 33 32 32 33 34 35 34 33 30 24 26 22 21 14 28 27 21 27 28 31 33 32 24 32 33 29 28 27 28 29 28 28
MSLP
1016.86 1016.85 1017.07 1017.01 1017.15 1017.18 1017.10 1017.26 1017.15 1017.19 1016.78 1016.94 1016.74 1016.40 1015.85 1015.25 1014.65 1014.19 1013.35 1011.28 1011.21 1011.12 1011.43 1011.58 1011.68 1012.02 1012.43 1012.90 1013.15 1013.66 1014.57 1014.61 1013.41 1012.62 1011.13 1010.17 1009.89 1009.40 1008.81 1008.69 1008.32 1007.87 1007.70 1007.20 1006.96
1016.31 1016.26 1016.53 1016.81 1016.88 1016.96 1016.89 1016.96 1017.11 1016.93 1016.90 1016.61 1016.37 1016.20 1015.79 1015.22 1014.44 1013.23 1011.00 1010.70 1010.98 1011.02 1011.27 1011.56 1011.79 1012.07 1012.78 1013.12 1013.26 1013.58 1014.01 1013.29 1012.21 1011.34 1010.80 1010.18 1010.03 1009.64 1009.42 1008.98 1008.33 1007.78 1007.37 1007.22 1007.08
1015.67 1015.92 1015.93 1016.18 1016.73 1016.70 1016.63 1016.74 1016.76 1016.84 1016.78 1016.54 1016.04 1015.65 1015.59 1015.07 1014.27 1011.27 1010.15 1010.50 1010.84 1011.07 1011.41 1011.45 1011.61 1011.95 1012.65 1013.02 1013.04 1013.04 1012.86 1012.29 1011.47 1010.89 1010.74 1010.38 1009.76 1009.62 1009.34 1009.19 1008.68 1008.23 1007.46 1006.98 1007.02
1015.22 1015.33 1015.66 1015.92 1016.12 1016.41 1016.36 1016.32 1016.55 1016.70 1016.25 1016.51 1016.13 1015.66 1015.10 1015.05 1013.68 1010.60 1010.36 1010.39 1010.80 1011.10 1011.45 1011.73 1011.96 1012.26 1012.64 1012.64 1012.25 1012.54 1011.96 1011.58 1010.94 1010.54 1010.49 1010.35 1009.74 1009.30 1009.15 1008.84 1008.17 1007.72 1007.66 1007.54 1007.25
1014.62 1015.12 1015.20 1015.36 1015.90 1016.01 1016.11 1016.08 1016.12 1016.45 1016.33 1016.25 1016.02 1015.70 1015.13 1014.65 1012.48 1010.73 1010.59 1010.54 1010.97 1011.12 1011.40 1011.62 1012.02 1012.21 1012.15 1012.06 1011.93 1011.83 1011.46 1010.89 1010.37 1010.21 1010.03 1009.78 1009.75 1009.28 1008.63 1008.19 1007.80 1007.61 1007.39 1007.41 1007.28
1013.68 1014.27 1014.77 1015.01 1015.37 1015.78 1015.86 1016.01 1016.00 1015.93 1016.31 1016.12 1015.81 1015.99 1015.49 1013.69 1010.37 1010.77 1010.60 1010.79 1010.88 1011.08 1011.17 1011.38 1011.26 1011.28 1011.52 1011.51 1011.58 1010.93 1010.94 1010.64 1010.16 1009.75 1009.46 1009.34 1009.03 1009.16 1008.31 1007.49 1007.80 1007.76 1007.65 1007.28 1007.23
1012.99 1013.48 1013.76 1014.41 1014.96 1015.37 1015.57 1015.67 1015.90 1015.84 1015.89 1015.94 1015.83 1015.70 1015.30 1011.45 1009.92 1009.91 1010.61 1010.64 1010.53 1010.66 1010.74 1010.85 1010.84 1011.08 1011.25 1011.18 1010.87 1010.85 1010.85 1010.57 1009.98 1009.43 1009.23 1008.81 1008.80 1008.54 1007.78 1007.74 1007.69 1007.74 1007.64 1007.36 1007.04
1012.20 1012.61 1013.34 1014.00 1014.55 1014.89 1015.40 1015.65 1015.73 1015.60 1015.50 1015.76 1015.76 1015.62 1013.82 1010.63 1010.29 1010.29 1009.99 1010.08 1010.20 1010.50 1010.61 1010.51 1010.70 1011.07 1011.12 1011.01 1010.99 1011.13 1011.04 1010.86 1009.89 1009.39 1008.93 1009.05 1008.51 1008.00 1007.53 1007.90 1007.98 1007.51 1007.22 1006.97 1006.69
1011.61 1012.18 1012.81 1013.38 1014.39 1014.63 1015.21 1015.44 1015.36 1015.16 1015.22 1015.54 1015.70 1015.35 1012.48 1010.39 1010.20 1008.85 1009.23 1009.17 1009.31 1010.03 1010.35 1010.48 1010.75 1011.08 1011.31 1011.67 1012.01 1011.82 1011.77 1011.37 1010.47 1009.52 1009.43 1009.27 1008.84 1008.40 1007.80 1007.85 1008.05 1007.75 1007.22 1006.80 1006.32
1010.84 1011.65 1012.48 1013.03 1014.21 1014.47 1015.01 1015.00 1014.98 1014.93 1014.85 1015.32 1015.24 1015.29 1011.62 1009.86 1008.85 1008.41 1008.62 1008.82 1008.97 1009.61 1010.34 1010.89 1011.13 1011.36 1011.90 1012.28 1012.36 1012.24 1012.17 1011.86 1011.35 1010.22 1009.72 1009.55 1008.98 1008.71 1008.13 1008.04 1007.68 1007.57 1007.12 1006.62 1006.18
1009.58 1010.74 1011.72 1012.71 1013.87 1014.56 1015.18 1014.84 1015.41 1014.73 1014.63 1012.93 1012.62 1011.73 1010.39 1009.30 1008.69 1008.27 1008.06 1008.62 1008.80 1009.32 1010.31 1010.93 1011.48 1011.62 1011.59 1012.01 1012.12 1012.11 1012.11 1011.97 1011.54 1010.35 1010.30 1009.23 1008.50 1008.44 1007.88 1007.73 1007.47 1007.01 1006.87 1006.46 1006.05
1009.10 1010.24 1011.11 1012.30 1013.50 1014.00 1014.64 1015.02 1013.05 1013.59 1013.01 1012.00 1011.49 1010.84 1010.08 1009.81 1009.34 1008.19 1007.74 1008.34 1009.01 1009.55 1010.17 1011.17 1011.16 1010.90 1011.31 1011.78 1012.02 1012.08 1012.01 1011.79 1011.14 1010.13 1010.35 1009.40 1007.83 1007.64 1007.36 1006.87 1006.75 1006.74 1006.82 1006.72 1006.71
1008.48 1009.72 1010.74 1012.17 1013.25 1014.01 1014.31 1014.16 1012.26 1013.05 1013.06 1010.64 1009.84 1009.08 1008.91 1009.54 1009.20 1008.14 1007.82 1007.95 1008.61 1009.57 1010.09 1010.50 1010.39 1010.35 1010.99 1011.42 1011.73 1011.41 1011.61 1011.41 1011.00 1010.29 1009.84 1009.36 1007.33 1006.77 1006.39 1006.33 1006.48 1006.72 1007.32 1007.84 1008.00
1008.32 1009.14 1010.77 1011.98 1013.56 1013.41 1013.92 1012.60 1012.40 1013.48 1012.65 1009.63 1008.64 1007.13 1007.36 1008.09 1007.86 1007.17 1007.30 1007.54 1008.51 1009.09 1009.94 1010.22 1009.66 1009.95 1010.47 1010.76 1010.80 1010.82 1010.34 1010.40 1010.60 1010.88 1010.75 1009.82 1008.04 1006.83 1006.20 1006.39 1006.50 1007.56 1008.25 1008.60 1008.55
1007.63 1009.18 1010.50 1011.38 1012.51 1012.75 1012.71 1011.68 1012.47 1013.32 1011.97 1007.71 1006.86 1005.86 1006.19 1006.76 1006.08 1006.18 1006.56 1007.08 1007.74 1008.65 1009.43 1009.46 1009.29 1009.44 1009.80 1009.64 1009.59 1009.66 1009.37 1009.89 1010.22 1010.61 1010.55 1010.34 1010.13 1005.79 1005.76 1006.73 1007.60 1008.27 1008.58 1008.73 1008.82
1007.48 1008.83 1010.41 1011.94 1012.23 1011.95 1012.30 1012.23 1012.83 1013.53 1009.85 1006.78 1006.16 1006.01 1006.46 1006.32 1005.97 1005.99 1006.48 1006.96 1007.36 1008.41 1008.91 1009.03 1008.87 1008.92 1008.84 1008.85 1009.07 1009.12 1009.36 1009.77 1010.24 1010.73 1010.52 1009.63 1009.65 1006.46 1006.80 1007.40 1007.71 1008.11 1008.62 1009.04 1009.12
1007.46 1009.01 1010.37 1011.34 1011.66 1011.78 1012.11 1013.04 1013.46 1011.64 1007.70 1006.73 1006.08 1006.15 1006.12 1006.28 1006.38 1006.42 1007.03 1007.86 1008.27 1008.93 1009.37 1009.38 1009.28 1009.14 1008.98 1009.06 1009.28 1009.57 1009.92 1010.55 1011.12 1011.26 1010.13 1009.50 1009.36 1007.35 1007.11 1007.33 1007.79 1008.33 1008.95 1009.38 1009.58
1008.28 1009.32 1010.61 1010.97 1011.87 1012.12 1012.36 1012.68 1011.82 1009.29 1007.62 1006.52 1005.88 1006.27 1006.77 1006.86 1007.02 1007.15 1008.03 1009.00 1009.24 1009.38 1010.09 1010.04 1010.32 1009.96 1009.72 1009.94 1010.13 1010.14 1010.52 1011.16 1011.35 1011.15 1010.52 1009.61 1008.75 1007.84 1007.65 1007.91 1008.11 1008.83 1009.55 1010.05 1010.38
1008.54 1010.27 1010.94 1011.29 1011.30 1011.59 1012.03 1011.66 1009.79 1008.74 1007.53 1006.81 1006.61 1006.98 1007.41 1007.50 1007.53 1007.91 1008.94 1009.85 1010.20 1010.29 1010.50 1010.81 1010.86 1010.64 1010.47 1010.40 1010.54 1010.62 1011.17 1011.61 1011.87 1011.60 1011.34 1009.68 1008.62 1008.16 1008.20 1008.52 1008.87 1009.64 1010.21 1010.59 1010.84
1009.24 1010.81 1010.95 1010.70 1011.08 1011.40 1011.75 1010.44 1009.31 1008.47 1007.99 1007.32 1007.16 1007.72 1008.12 1008.39 1008.52 1008.66 1009.54 1010.57 1010.77 1010.78 1010.68 1011.48 1011.70 1011.52 1011.16 1010.83 1011.01 1011.30 1011.99 1012.39 1012.77 1012.68 1011.81 1010.03 1009.35 1008.94 1009.18 1009.55 1009.80 1010.49 1011.03 1011.45 1011.58
1009.31 1010.43 1011.19 1010.72 1011.01 1011.34 1010.92 1010.17 1009.21 1008.68 1007.99 1008.05 1008.04 1008.65 1008.96 1009.28 1009.48 1009.80 1010.39 1010.99 1010.99 1011.39 1011.40 1011.95 1012.33 1012.90 1012.01 1011.68 1012.04 1012.59 1012.78 1013.13 1013.42 1013.49 1012.84 1011.58 1010.34 1009.80 1010.31 1010.72 1011.05 1011.52 1012.07 1012.25 1012.44
1008.94 1009.99 1010.58 1010.62 1011.43 1011.15 1010.52 1009.66 1009.25 1008.62 1007.92 1008.86 1008.84 1009.20 1009.62 1010.11 1010.20 1010.40 1010.81 1011.08 1011.29 1011.56 1012.22 1012.52 1013.09 1013.42 1013.01 1012.57 1012.63 1013.22 1013.74 1014.11 1014.55 1014.41 1013.89 1012.87 1011.03 1010.40 1010.80 1011.68 1012.14 1012.80 1013.32 1013.14 1013.01
1009.27 1010.26 1011.07 1011.03 1010.81 1011.05 1010.27 1009.49 1009.08 1009.00 1009.23 1009.59 1009.78 1010.00 1010.27 1010.60 1011.05 1011.13 1011.42 1011.85 1011.79 1012.27 1012.61 1013.10 1013.79 1014.11 1013.96 1014.07 1013.87 1014.06 1014.29 1014.69 1015.17 1015.19 1014.43 1013.81 1011.48 1011.10 1011.47 1012.27 1013.13 1013.87 1014.35 1014.27 1013.78
1009.14 1010.54 1011.24 1011.23 1010.71 1010.34 1009.91 1009.69 1009.72 1009.75 1010.07 1010.18 1010.29 1010.29 1010.65 1011.27 1011.56 1011.90 1012.15 1012.55 1012.52 1012.68 1013.10 1013.24 1013.97 1014.27 1014.48 1014.36 1014.49 1014.62 1014.60 1014.95 1015.53 1015.48 1014.37 1013.17 1012.17 1011.57 1012.46 1013.23 1014.07 1014.30 1015.25 1015.26 1014.64
1008.92 1009.55 1009.62 1010.77 1010.29 1009.94 1009.69 1009.69 1009.87 1010.22 1010.43 1010.52 1011.03 1011.16 1011.46 1012.01 1012.30 1012.55 1012.83 1013.04 1013.24 1013.38 1013.73 1014.12 1014.87 1014.98 1014.87 1014.76 1014.62 1014.51 1014.45 1014.57 1014.79 1014.42 1014.21 1013.00 1012.72 1012.49 1013.41 1014.25 1014.93 1015.08 1015.79 1015.89 1015.26
1008.69 1008.70 1009.24 1009.51 1009.54 1009.77 1009.79 1010.10 1010.34 1010.73 1010.89 1011.28 1011.58 1012.06 1012.20 1012.53 1012.80 1013.06 1013.35 1013.72 1013.86 1014.12 1014.61 1015.17 1015.72 1015.59 1015.29 1015.14 1014.95 1014.19 1013.69 1013.55 1013.52 1013.30 1013.09 1012.87 1012.27 1012.75 1014.17 1015.07 1015.59 1016.14 1016.29 1016.48 1016.19
1008.50 1008.42 1008.43 1009.74 1009.77 1009.76 1010.17 1010.42 1010.79 1010.96 1011.81 1011.79 1012.19 1012.65 1012.90 1013.16 1013.15 1013.22 1013.36 1013.69 1014.00 1014.51 1015.23 1015.81 1016.11 1016.50 1016.09 1015.54 1015.03 1013.94 1012.78 1012.65 1012.26 1011.76 1011.91 1012.02 1011.74 1013.25 1014.76 1015.70 1016.23 1016.71 1016.85 1017.39 1017.21
Wind_Speed
13 13 13 11 10 8 7 8 8 10 10 14 16 18 20 20 19 2 7 8 4 5 5 2 2 3 3 2 3 4 3 4 6 8 6 1 4 5 2 5 4 3 3 7 6
16 15 14 13 9 8 7 7 8 9 11 12 14 17 19 20 6 8 10 7 9 3 4 5 4 5 2 1 2 4 5 10 7 5 3 5 2 4 4 5 6 10 7 5 1
17 16 15 13 11 9 8 7 7 9 11 12 12 13 16 12 5 6 1 10 10 5 1 1 3 5 4 3 4 5 6 5 4 6 2 5 7 4 5 5 8 9 12 10 5
18 16 14 14 12 10 8 4 7 10 9 11 12 13 13 2 8 2 4 5 9 5 4 3 2 4 4 6 6 4 7 6 5 7 5 6 7 5 7 9 11 12 9 6 9
18 17 15 15 13 10 7 5 6 10 10 11 11 10 4 3 12 4 2 5 6 8 6 6 5 5 5 5 3 5 5 7 8 9 7 7 9 11 6 10 10 10 9 9 9
21 18 16 14 12 10 8 6 7 8 10 11 8 8 1 5 3 3 4 4 5 4 5 6 6 7 4 4 5 2 5 7 6 7 5 8 8 7 8 6 8 8 10 10 7
22 20 18 15 12 10 9 7 7 9 10 11 8 5 4 19 3 4 3 3 3 5 4 4 4 2 1 4 2 4 4 6 6 6 7 4 1 8 10 6 7 7 9 9 9
23 21 17 14 11 8 6 7 9 10 10 11 9 5 10 5 3 7 5 4 6 6 5 4 2 3 3 5 6 3 1 2 5 3 4 6 5 4 7 2 9 12 9 8 9
22 21 18 15 11 7 5 8 12 12 11 7 4 3 12 6 5 9 9 8 7 4 5 1 4 6 2 2 4 3 4 3 6 4 5 5 1 4 13 10 9 10 10 10 10
24 21 18 15 10 6 2 7 11 5 1 5 5 3 6 4 3 3 5 4 4 3 3 4 2 3 2 4 6 5 3 3 4 7 5 11 14 10 10 7 11 10 10 10 11
26 24 20 18 12 5 3 3 3 1 4 12 8 5 5 5 5 4 5 7 5 4 5 3 3 7 9 6 3 2 3 5 5 12 3 14 15 10 9 6 10 10 9 9 11
26 24 22 17 14 11 4 4 3 2 8 17 18 13 8 2 4 6 6 6 6 7 5 2 5 9 5 4 5 5 5 6 6 11 6 11 19 13 9 8 7 8 9 8 8
26 24 22 19 13 9 5 12 2 3 5 8 10 10 9 10 8 8 9 5 5 6 7 8 7 3 6 4 5 6 5 5 9 5 4 7 12 5 5 3 4 5 5 7 7
26 25 23 20 7 4 5 9 4 3 3 8 6 9 10 9 8 11 9 7 3 10 7 6 7 9 6 7 8 6 10 11 7 1 4 3 12 6 4 3 2 6 7 6 9
27 28 26 14 8 6 2 6 6 3 2 4 5 2 10 13 3 5 5 2 8 7 7 7 5 5 5 7 7 8 6 7 5 4 2 5 2 7 11 4 3 3 4 6 8
29 28 24 6 3 2 2 7 5 2 11 3 5 6 8 5 1 5 6 2 3 5 1 5 1 2 4 1 2 5 2 3 3 3 5 9 8 14 3 2 3 2 5 7 9
29 26 12 5 5 1 4 5 3 6 4 4 5 6 5 5 2 2 6 4 4 4 2 2 0 1 4 3 4 8 3 2 3 0 7 5 4 12 2 2 3 2 6 8 10
27 21 14 3 5 6 4 2 7 8 8 3 2 7 4 0 2 3 5 4 6 3 3 4 3 3 5 4 2 1 2 3 5 3 5 2 6 6 2 3 6 6 5 7 10
22 4 4 3 5 3 8 5 6 3 4 2 4 4 2 2 3 4 5 3 2 2 4 4 2 1 3 2 1 3 2 3 3 2 3 5 5 2 4 4 1 7 10 11 11
7 6 2 3 6 4 3 7 4 2 3 4 2 4 2 2 3 3 3 1 3 3 1 3 1 3 3 1 5 6 3 4 2 3 5 5 4 3 6 9 11 11 11 12 13
7 6 5 6 2 2 6 5 2 2 2 6 3 3 3 1 1 2 2 1 2 2 4 3 2 2 2 1 0 4 1 1 1 2 3 3 3 4 7 6 7 8 9 9 13
4 5 4 4 4 2 3 3 6 1 9 4 3 3 3 1 2 3 3 3 2 3 3 2 4 2 6 4 3 4 3 2 5 5 3 2 6 3 4 7 10 10 11 12 12
3 4 2 1 4 6 4 0 5 4 4 1 3 1 1 2 3 3 4 3 3 3 6 4 1 1 3 4 4 4 2 2 0 3 6 1 5 3 6 7 9 10 11 12 13
4 4 3 1 2 6 4 4 4 4 3 4 3 4 4 3 5 3 3 3 4 3 5 4 3 5 4 1 2 3 4 2 5 2 5 10 13 12 7 6 8 11 10 11 13
2 4 6 8 4 4 4 4 5 3 3 4 4 4 3 3 2 2 2 3 2 2 3 4 4 4 4 3 3 7 12 11 12 14 11 13 14 8 2 6 7 8 9 11 15
3 4 3 4 4 6 2 2 5 3 3 2 5 2 5 3 1 3 3 2 3 2 3 2 2 2 3 4 8 16 15 14 14 17 15 18 23 5 8 7 8 8 10 11 13
0 1 4 2 3 5 2 4 5 6 6 5 6 4 4 2 1 3 5 4 5 6 5 4 4 3 4 2 9 12 10 8 13 16 16 16 10 11 8 8 9 8 11 11 12
Wind_Direction
245 246 256 259 266 278 300 313 325 332 336 332 331 328 326 325 318 302 238 220 182 221 158 147 112 106 72 117 134 133 81 203 215 172 235 213 32 312 257 271 320 250 253 253 312
240 244 250 261 263 269 286 302 317 326 328 331 331 329 327 325 308 252 245 190 213 64 126 155 160 123 76 190 228 148 161 210 212 207 257 297 151 278 322 303 284 303 298 277 227
235 241 243 250 260 265 278 293 308 316 324 326 326 330 326 331 309 253 53 202 200 187 87 112 110 128 163 160 210 195 213 221 245 230 229 276 276 212 226 265 252 278 285 305 312
232 230 235 245 250 261 268 275 304 311 324 320 326 331 328 354 303 14 47 140 175 143 129 107 105 139 196 201 209 215 231 229 250 245 257 217 273 273 198 229 245 262 263 287 288
225 228 226 232 246 254 264 272 298 308 315 315 325 328 13 45 250 303 24 121 141 144 171 160 153 165 190 201 202 220 240 248 242 256 247 257 230 248 257 248 260 267 282 264 273
216 213 218 222 231 249 262 278 297 305 309 310 318 314 77 273 197 34 322 167 174 162 180 170 198 197 244 233 181 217 220 261 268 255 255 245 245 155 260 253 255 292 281 285 267
216 207 204 207 219 238 253 275 289 301 304 304 295 251 254 242 213 246 348 237 194 180 181 205 196 158 191 295 272 260 295 291 245 237 239 258 96 219 238 283 291 276 272 274 274
214 200 195 199 207 221 250 284 294 294 296 297 282 237 252 270 267 270 154 250 235 249 243 270 194 212 178 280 344 327 78 327 297 349 259 140 285 221 312 25 312 307 294 284 266
208 195 187 181 196 183 254 294 288 291 285 267 250 223 263 307 253 251 174 198 187 196 212 163 147 191 203 162 1 344 259 251 304 260 278 197 75 298 310 290 274 272 280 280 284
198 189 184 171 174 169 278 290 290 290 221 168 248 276 256 263 247 216 185 144 165 176 112 138 115 171 62 121 226 220 230 244 259 296 292 284 275 257 263 268 262 259 267 279 285
186 183 174 161 156 152 108 21 234 88 240 191 197 242 283 285 288 241 169 147 157 138 173 168 138 202 221 207 209 227 238 245 251 261 298 278 281 275 265 251 269 278 276 271 277
187 178 161 152 156 124 115 253 235 337 294 231 243 238 270 16 315 272 146 147 148 190 135 61 228 231 205 192 212 239 258 276 277 264 178 273 282 278 264 247 226 260 292 308 349
174 164 152 146 145 147 188 216 28 313 262 264 210 224 214 174 234 252 161 150 161 172 184 179 218 147 173 226 213 227 197 238 227 309 267 283 285 245 250 228 280 358 28 27 6
165 150 143 131 130 143 213 227 247 240 290 267 222 245 173 172 232 209 190 146 176 202 176 217 235 229 204 232 196 245 211 226 250 51 252 118 290 272 221 141 333 16 36 12 357
156 144 139 146 128 171 326 123 138 36 286 209 185 167 154 169 150 208 161 100 165 185 128 234 184 149 196 215 167 229 228 229 232 221 279 190 167 270 340 29 99 43 25 18 7
146 142 143 120 109 152 141 77 52 167 242 228 151 164 151 215 235 115 148 120 153 144 135 235 266 200 220 194 186 295 252 287 69 145 259 193 166 277 293 193 266 346 21 15 3
137 138 124 132 156 38 107 128 144 191 311 200 174 149 173 162 207 158 127 50 162 124 161 354 322 358 50 69 13 28 62 322 319 241 234 150 186 257 298 284 213 32 25 12 6
128 126 139 137 159 171 138 154 196 212 233 327 91 104 150 54 78 108 99 118 32 74 118 164 164 11 338 100 241 295 146 170 247 229 278 355 254 254 143 73 54 68 51 20 360
107 43 70 223 159 163 155 200 199 278 341 17 63 108 86 27 114 89 70 88 71 26 148 140 244 82 90 256 172 323 64 164 262 256 260 230 290 269 136 32 141 45 23 9 4
103 106 242 143 146 91 169 219 240 300 315 6 117 30 114 21 58 72 103 323 114 36 19 190 194 8 291 123 37 88 277 14 352 274 240 258 243 266 11 350 353 18 13 360 358
113 102 209 150 142 106 182 237 262 334 219 41 82 93 71 101 91 93 91 70 110 80 81 138 129 247 16 268 45 3 352 0 170 194 242 316 284 36 24 359 351 9 10 12 358
150 117 183 152 122 204 199 201 195 59 55 26 74 73 103 207 98 87 119 92 131 131 110 44 116 149 228 296 296 142 135 116 119 282 280 249 269 69 60 28 14 8 1 9 12
96 94 18 166 160 177 248 93 40 45 41 135 101 117 148 107 100 99 97 41 76 122 160 176 127 112 102 48 29 105 123 127 113 203 231 226 260 126 54 58 39 17 4 356 13
106 116 83 218 263 184 163 145 118 60 75 70 83 72 77 67 27 134 96 41 17 72 103 105 157 185 201 149 149 263 226 220 173 163 262 250 292 303 346 37 32 39 1 354 12
73 161 168 188 235 194 130 136 119 120 75 45 46 66 134 126 101 101 79 29 360 184 56 108 200 217 236 254 245 259 261 256 245 243 237 266 264 278 79 79 48 44 13 3 12
148 125 68 130 123 130 55 113 124 105 93 70 115 105 64 109 94 170 134 165 227 65 105 22 251 165 249 253 254 272 273 266 253 250 251 252 264 127 110 87 64 35 34 15 14
310 306 115 352 107 92 168 143 136 120 39 58 135 109 75 51 199 220 203 194 195 172 180 146 130 71 284 329 322 288 270 269 270 255 233 228 236 145 115 91 65 50 42 17 14